Location: Brachbach
(49.1847°N, 9.7240°E)
Time: 07:34:58
(UTC+00:00)

FO-29 - Pass Details

Date: 16 March 2026
Orbit: 801 x 1320 km, 98.5° (Epoch: 17 April)

Event Time Altitude Azimuth Distance (km) Brightness Sun altitude
Rises 21:51:51 0° 8° (N) 4,077 13.3 -37.9°
Reaches altitude 10° 21:54:54 10° 356° (N) 3,180 12.8 -38.1°
Maximum altitude 22:00:34 25° 306° (NW) 2,344 11.9 -38.6°
Drops below altitude 10° 22:06:29 10° 256° (WSW) 3,334 12.4 -39.1°
Sets 22:09:47 0° 244° (WSW) 4,315 12.9 -39.3°
